sat.trackr.live / text

‹ back to catalog

STARLINK-6335

NORAD 56527 · 2023-065AA

PAYLOAD ACTIVE UNKNOWN

§ Identity

Operator
Country
US
Launch date
2023-05-14
Launch site
AFETR
Launch vehicle
Mass (kg)
RCS (m²)

Purposes: comms

External: N2YO · Heavens-Above · Gunter

§ Orbital elements

Epoch: 2026-09-20T12:27:07.979040Z

Period
94.27 min
Inclination
42.9981°
Eccentricity
0.0000712
Mean motion
15.27581182 rev/d
Perigee alt
482.6 km
Apogee alt
483.5 km
Semi-major
6,861.2 km
B*
-9.6270e-6
RAAN
195.8095°
Arg perigee
59.9168°
Mean anomaly
300.1755°
Rev number
18,635

§ Raw data

STARLINK-63351 56527U 23065AA  26263.51884235 -.00000527  00000+0 -96270-5 0  99902 56527  42.9981 195.8095 0000712  59.9168 300.1755 15.27581182186359

JSON: /api/v1/satellites/56527 · /tle

For live sub-satellite position, see the globe view (requires WebGL).

§ Visibility from observer

Set your observer location to see the next 7 days of passes ≥ 10°. The values pass through the URL so the page stays shareable.

No JS? Fill the form by hand. The geolocation button needs JavaScript.